#timestamp,LO_Frequency,Hit,StdDev 
1512752415.5,286046996.9,N
1512752435.3,286046995.6,N
1512752455.2,286046999.1,N
1512752475.9,286046992.9,N
1512752495.7,286046984.4,Y
1512752515.6,286046987.0,P
1512752535.4,286046986.1,N
1512752555.2,286046982.1,N
1512752575.1,286046982.6,N
1512752576.0,286046982.6,N
1512752595.8,286046984.7,N
1512752615.6,286046977.8,Y
1512752635.5,286046987.4,P
1512752655.3,286046984.0,P
1512752675.1,286046980.5,P
1512752695.9,286046977.6,Y
1512752715.7,286046990.4,P
1512752735.5,286046995.6,N
1512752755.3,286047000.9,N
1512752775.2,286047002.1,N
1512752795.0,286047000.2,N
1512752795.9,286047000.2,N
1512752815.7,286047003.0,N
1512752835.6,286047002.7,N
1512752855.4,286047001.2,N
1512752875.2,286046996.7,N
1512752895.1,286046995.7,N
1512752896.0,286046995.7,N
1512752915.8,286046996.3,N
1512752935.6,286046995.5,N
1512752955.5,286046991.6,N
1512752975.3,286046987.0,N
1512752995.1,286046988.8,N
1512753015.9,286046989.5,N
1512753035.7,286046987.4,N
1512753055.5,286046980.5,Y
1512753075.4,286046984.1,P
1512753095.2,286046986.0,N
1512753115.0,286046982.9,P
1512753115.9,286046982.9,Y
1512753135.8,286046990.0,P
1512753155.6,286046987.0,P
1512753175.4,286046987.7,P
1512753195.3,286046985.8,Y
1512753215.1,286046998.8,P
1512753235.8,286046993.9,N
1512753255.7,286046995.9,N
1512753275.5,286047002.2,N
1512753295.3,286047004.6,N
1512753315.2,286047001.9,N
1512753335.9,286047004.4,N
1512753355.7,286046996.8,N
1512753375.5,286047001.0,N
1512753395.4,286046995.5,N
1512753415.2,286046999.6,N
1512753435.0,286046997.9,N
1512753435.9,286046997.9,N
1512753455.8,286046998.6,N
1512753475.6,286047000.9,N
1512753495.4,286047003.1,N
1512753515.3,286047004.8,N
1512753535.1,286047003.8,N
1512753536.0,286047003.8,N
1512753555.8,286046999.3,N
1512753575.7,286046991.4,N
1512753595.5,286046992.3,N
1512753615.3,286046989.5,N
1512753635.2,286046986.9,N
1512753655.9,286046994.0,N
1512753675.7,286046995.4,N
1512753695.5,286046995.6,N
1512753715.4,286046997.2,N
1512753735.2,286046997.5,N
1512753755.0,286046993.6,N
1512753755.9,286046993.6,N
1512753775.8,286046987.7,N
1512753795.6,286046990.3,N
1512753815.4,286046995.9,N
1512753835.3,286046991.8,N
1512753855.1,286046997.3,N
1512753875.8,286046995.5,N
1512753895.7,286046995.6,N
1512753915.5,286046996.2,N
1512753935.3,286046997.0,N
1512753955.2,286046994.6,N
1512753975.9,286046998.0,N
1512753995.7,286047002.4,N
1512754015.6,286047001.3,N
1512754035.4,286047000.5,N
1512754055.2,286047002.0,N
1512754075.0,286047001.8,N
1512754076.0,286047001.8,N
1512754095.8,286046998.8,N
1512754115.6,286047001.1,N
1512754135.4,286046999.8,N
1512754155.3,286046998.5,N
1512754175.1,286047002.7,N
1512754195.8,286047001.8,N
1512754215.7,286047001.9,N
1512754235.5,286047005.2,N
1512754255.3,286047009.3,N
1512754275.2,286047014.0,Y
1512754295.9,286047012.5,P
1512754315.7,286047011.0,N
1512754335.6,286047011.3,N
1512754355.4,286047011.7,N
1512754375.2,286047009.8,N
1512754395.1,286047009.9,N
1512754396.0,286047009.9,N
1512754415.8,286047015.5,Y
1512754435.6,286047007.2,P
1512754455.5,286047006.8,P
1512754475.3,286047004.6,P
1512754495.1,286047003.3,N
1512754515.9,286047007.6,Y
1512754535.7,286046998.8,P
1512754555.5,286046997.6,N
1512754575.4,286046998.0,N
1512754595.2,286046992.7,N
1512754615.0,286046992.9,N
1512754615.9,286046992.9,N
1512754635.8,286046987.5,N
1512754655.6,286046982.7,Y
1512754675.4,286046989.6,P
1512754695.3,286046988.4,P
1512754715.1,286046985.0,P
1512754716.0,286046985.0,Y
1512754735.8,286046989.2,P
1512754755.7,286046987.8,P
1512754775.5,286046987.4,P
1512754795.3,286046991.0,Y
1512754815.2,286047001.4,P
1512754835.9,286047000.9,N
1512754855.7,286047002.2,N
1512754875.6,286047003.2,N
1512754895.4,286047001.5,N
1512754915.2,286047006.8,N
1512754935.0,286047008.4,N
1512754935.9,286047008.4,N
1512754955.8,286047006.3,N
1512754975.6,286047008.8,N
1512754995.4,286047008.8,N
1512755015.3,286047009.9,N
1512755035.1,286047012.1,N
1512755036.0,286047012.1,N
1512755055.8,286047009.5,N
1512755075.7,286047010.2,N
1512755095.5,286047013.2,N
1512755115.3,286047013.1,N
1512755135.2,286047013.0,N
1512755155.9,286047015.0,N
1512755175.7,286047015.9,N
1512755195.5,286047016.2,N
1512755215.4,286047019.7,Y
1512755235.2,286047013.2,P
1512755255.0,286047012.5,P
1512755256.0,286047012.5,P
1512755275.8,286047015.5,Y
1512755295.6,286047006.9,P
1512755315.5,286047010.1,P
1512755335.3,286047008.1,P
1512755355.1,286047007.7,Y
1512755375.9,286047001.8,P
1512755395.7,286047001.6,N
1512755415.5,286047004.2,N
1512755435.3,286047004.8,N
1512755455.2,286047004.3,N
1512755475.0,286047000.2,N
1512755475.9,286047000.2,N
1512755495.7,286047002.6,N
1512755515.6,286047007.3,N
1512755535.4,286047006.9,N
1512755555.2,286047009.5,Y
1512755575.1,286047003.5,P
1512755576.0,286047003.5,P
1512755595.8,286046998.4,P
1512755615.6,286046990.2,Y
1512755635.5,286046983.5,P
1512755655.3,286046978.1,N
1512755675.1,286046975.7,N
1512755695.9,286046983.9,N
1512755715.7,286046987.4,N
1512755735.5,286046984.1,N
1512755755.4,286046980.6,N
1512755775.2,286046975.7,Y
1512755795.0,286046991.9,P
1512755795.9,286046991.9,N
1512755815.8,286046989.8,N
1512755835.6,286046985.0,Y
1512755855.4,286046997.9,P
1512755875.3,286047000.9,N
1512755895.1,286047007.6,N
1512755915.8,286047010.1,N
1512755935.7,286047013.6,N
1512755955.5,286047014.0,N
1512755975.3,286047011.3,N
1512755995.2,286047009.8,N
